Weather History for KANB - August, 2013

Change the Weather History Date:

Friday, August 2, 2013

  Actual Average Record
Temperature  
Mean Temperature 79 °F 80 °F  
Max Temperature 90 °F 90 °F 100 °F (1957)
Min Temperature 68 °F 70 °F 59 °F (1965)
Cooling Degree Days 14    
Growing Degree Days 29 (Base 50)    
Moisture  
Dew Point 67 °F    
Average Humidity 72    
Maximum Humidity 100    
Minimum Humidity 43    
Precipitation  
Precipitation 0.00 in 0.12 in 3.39 in (1984)
Month to date precipitation 0.05 0.24  
Year to date precipitation 52.37 31.87  
Sea Level Pressure  
Sea Level Pressure 30.00 in    
Wind  
Wind Speed 2 mph (West)    
Max Wind Speed 8 mph    
Max Gust Speed 12 mph    
Visibility 10 miles    
Events      
T = Trace of Precipitation, MM = Missing Value Source: NWS Daily Summary

Daily Weather History Graph

Daily Weather History Graph

Search for Another Location

Airport or City:

Trip Planner

Search our weather history database for the weather conditions in past years. The results will help you decide how hot, cold, wet, or windy it might be!

Date:

Astronomy

Aug. 02, 2013 Rise Set
Actual Time 5:56 AM CDT 7:42 PM CDT
Civil Twilight 5:29 AM CDT 8:09 PM CDT
Nautical Twilight 4:56 AM CDT 8:42 PM CDT
Astronomical Twilight 4:21 AM CDT 9:16 PM CDT
Moon 2:19 AM CDT (8/2) 4:37 PM CDT (8/2)
Length of Visible Light 14h 39m
Length of Day
13h 45m
Waning Crescent, 15% of the Moon is Illuminated
Aug 2
Waning Crescent
Aug 6
New
Aug 14
First Quarter
Aug 20
Full
Aug 28
Last Quarter

Hourly Weather History & Observations

Time (CDT) Temp. Heat Index Dew Point Humidity Pressure Visibility Wind Dir Wind Speed Gust Speed Precip Events Conditions
12:53 AM 71.1 °F - 69.1 °F 93% 29.97 in 10.0 mi Calm Calm - N/A   Clear
1:53 AM 70.0 °F - 69.1 °F 97% 29.95 in 10.0 mi Calm Calm - N/A   Clear
2:53 AM 69.1 °F - 68.0 °F 96% 29.95 in 10.0 mi Calm Calm - N/A   Clear
3:53 AM 69.1 °F - 68.0 °F 96% 29.96 in 10.0 mi Calm Calm - 0.01 in   Clear
4:53 AM 68.0 °F - 66.9 °F 96% 29.97 in 10.0 mi Calm Calm - N/A   Scattered Clouds
5:01 AM 68.0 °F - 66.2 °F 94% 29.99 in 10.0 mi Calm Calm - N/A   Mostly Cloudy
5:53 AM 68.0 °F - 66.9 °F 96% 29.98 in 10.0 mi Calm Calm - N/A   Overcast
6:53 AM 68.0 °F - 68.0 °F 100% 30.00 in 10.0 mi Calm Calm - N/A   Overcast
7:53 AM 69.1 °F - 68.0 °F 96% 30.01 in 10.0 mi Calm Calm - N/A   Overcast
8:23 AM 71.6 °F - 69.8 °F 94% 30.04 in 10.0 mi Calm Calm - N/A   Scattered Clouds
8:53 AM 75.0 °F - 69.1 °F 82% 30.02 in 10.0 mi Calm Calm - N/A   Clear
9:53 AM 80.1 °F 82.9 °F 69.1 °F 69% 30.03 in 10.0 mi ENE 4.6 mph - N/A   Clear
10:53 AM 82.0 °F 85.5 °F 69.1 °F 65% 30.03 in 10.0 mi SSW 3.5 mph - N/A   Clear
11:53 AM 84.9 °F 87.6 °F 66.9 °F 55% 30.01 in 10.0 mi WSW 3.5 mph - N/A   Clear
12:53 PM 86.0 °F 86.8 °F 63.0 °F 46% 30.01 in 10.0 mi South 4.6 mph - N/A   Clear
1:53 PM 87.1 °F 89.2 °F 66.0 °F 49% 30.01 in 10.0 mi Variable 4.6 mph - N/A   Clear
2:53 PM 88.0 °F 88.7 °F 63.0 °F 43% 30.00 in 10.0 mi West 6.9 mph - N/A   Clear
3:53 PM 90.0 °F 91.3 °F 64.0 °F 42% 29.98 in 10.0 mi Variable 3.5 mph - N/A   Scattered Clouds
4:53 PM 88.0 °F 89.3 °F 64.0 °F 45% 29.98 in 10.0 mi NW 4.6 mph - N/A   Clear
5:53 PM 87.1 °F 87.5 °F 62.1 °F 43% 29.98 in 10.0 mi WNW 4.6 mph - N/A   Clear
6:53 PM 84.9 °F 87.1 °F 66.0 °F 53% 29.99 in 10.0 mi North 3.5 mph - N/A   Clear
7:53 PM 77.0 °F - 71.1 °F 82% 30.00 in 10.0 mi Calm Calm - N/A   Clear
8:53 PM 75.0 °F - 71.1 °F 87% 30.01 in 10.0 mi Calm Calm - N/A   Clear
9:53 PM 73.0 °F - 70.0 °F 90% 30.02 in 10.0 mi Calm Calm - N/A   Clear
10:53 PM 72.0 °F - 69.1 °F 91% 30.02 in 10.0 mi Calm Calm - N/A   Clear
11:53 PM 71.1 °F - 68.0 °F 90% 30.03 in 10.0 mi Calm Calm - N/A   Clear